Regional Weather Roundup
Issued by NWS

Home | Current Version | Previous Version | Graphics & Text | Print | Product List | Glossary On
Versions: 1 2 3 4 5 6 7 8 9 10 11 12 13 14 15 16 17 18 19 20 21 22 23 24 25 26 27 28 29 30 31 32 33 34 35 36 37 38 39 40 41 42 43 44 45 46 47 48 49 50
000
ASUS43 KMKX 272059
RWRWI

WISCONSIN REGIONAL WEATHER ROUNDUP
NATIONAL WEATHER SERVICE MILWAUKEE/SULLIVAN WI
300 PM CST FRI FEB 27 2015

NOTE: "FAIR" INDICATES FEW OR NO CLOUDS BELOW 12,000 FEET WITH NO
SIGNIFICANT WEATHER AND/OR OBSTRUCTIONS TO VISIBILITY.

WIZ001-002-006>008-014>016-023>028-272200-
NORTHWEST WISCONSIN

CITY           SKY/WX    TMP DP  RH WIND       PRES   REMARKS
SUPERIOR ARPT  SUNNY     19  -3  37 SW10      30.43F WCI   8
ASHLAND        SUNNY     18  -5  36 SW12      30.43S WCI   5
HAYWARD        SUNNY     15  -7  37 SW8       30.43S WCI   4
SIREN          SUNNY     15  -4  41 W13       30.47F WCI   1
CUMBERLAND     SUNNY     12  -4  48 W7        30.45F WCI   2
RICE LAKE      SUNNY     13  -5  45 W6        30.49F WCI   4
CHETEK         SUNNY     13  -4  45 W6        30.49S WCI   4
LADYSMITH      SUNNY     15  -6  39 SW9       30.46S WCI   3
EAU CLAIRE     NOT AVBL
MENOMONIE      SUNNY     15  -1  49 W6        30.52S WCI   6
NEW RICHMOND   SUNNY     16  -1  47 SW7       30.49F WCI   6
OSCEOLA        SUNNY     18  -1  45 SW7       30.52F WCI   8
$$

WIZ003>005-009-010-017-018-272200-
NORTH CENTRAL WISCONSIN

CITY           SKY/WX    TMP DP  RH WIND       PRES   REMARKS
MANITOWISH WTR SUNNY     15  -6  39 W9        30.35S WCI   3
ARBOR VITAE    SUNNY     17  -4  40 SW9G16    30.35S WCI   5
WOODRUFF       SUNNY     17  -4  40 SW9G16    30.35S WCI   5
RHINELANDER    SUNNY     16  -4  41 W12G18    30.37R WCI   3
EAGLE RIVER    SUNNY     16  -6  37 SW12      30.34S WCI   2
LAND O LAKES   SUNNY     18  -6  33 W8        30.34S WCI   8
PHILLIPS       SUNNY     14  -5  43 SW9       30.38S WCI   2
TOMAHAWK       SUNNY     16  -6  37 CALM      30.39S
MEDFORD        SUNNY     10  -4  53 SW8       30.43S WCI  -2
MERRILL        SUNNY     14  -4  44 SW10G16   30.43R WCI   1
$$

WIZ029-030-035-036-043>047-272200-
CENTRAL WISCONSIN

CITY           SKY/WX    TMP DP  RH WIND       PRES   REMARKS
WAUSAU         SUNNY     12  -4  48 SW13      30.44S WCI  -3
MOSINEE        SUNNY     12  -4  48 W8        30.46F WCI   1
MARSHFIELD     SUNNY     13  -4  46 SW10      30.46S WCI   0
STEVENS POINT  SUNNY     13  -6  42 W7        30.47F WCI   2
WAUPACA        SUNNY     20  -4  33 W8G17     30.50S WCI  10
WAUTOMA        NOT AVBL
WISC RAPIDS    SUNNY     16  -7  35 W12       30.49F WCI   3
CAMP DOUGLAS   NOT AVBL
$$

WIZ011>013-019>022-031-037>040-048>050-272200-
NORTHEAST WISCONSIN

CITY           SKY/WX    TMP DP  RH WIND       PRES   REMARKS
ANTIGO         SUNNY     11  -4  49 SW13      30.40R WCI  -4
SHAWANO        SUNNY     19  -5  33 W12G18    30.48R WCI   7
OCONTO         SUNNY     18  -3  40 W12       30.47S WCI   6
STURGEON BAY   SUNNY     16  -2  45 W13       30.49R WCI   2
GREEN BAY      SUNNY     18   1  47 SW14      30.49S WCI   4
MANITOWOC      NOT AVBL
APPLETON       SUNNY     18  -2  41 W13       30.49S WCI   4
CLINTONVILLE   SUNNY     18  -6  35 W9        30.48S WCI   6
OSHKOSH        SUNNY     17  -2  43 W10       30.50S WCI   5
$$

WIZ032>034-041-042-053>061-272200-
SOUTHWEST WISCONSIN

CITY           SKY/WX    TMP DP  RH WIND       PRES   REMARKS
LA CROSSE      SUNNY     17  -4  39 N6        30.56F WCI   9
SPARTA         SUNNY     15  -5  40 W8        30.54F WCI   4
VIROQUA        SUNNY     13  -4  46 SW9       30.50S WCI   1
BOSCOBEL       SUNNY     15  -3  44 SW10      30.58S WCI   2
PRAIRIE DU CHI SUNNY     12  -5  45 SW10      30.59F WCI  -1
PLATTEVILLE    SUNNY     12  -3  51 SW7       30.55F WCI   1
$$

WIZ056-057-062-063-064-067-068-272200-
SOUTH CENTRAL WISCONSIN

CITY           SKY/WX    TMP DP  RH WIND       PRES   REMARKS
REEDSBURG      SUNNY     15  -3  44 SW9       30.52S WCI   3
BARABOO/DELLS  SUNNY     15  -4  42 W7        30.51F WCI   5
LONE ROCK      NOT AVBL
MINERAL POINT  SUNNY     14  -4  44 SW8       30.53S WCI   3
MADISON        SUNNY     15  -4  42 VRB7      30.53F WCI   5
MIDDLETON      SUNNY     18  -6  34 SW8       30.53F WCI   8
WATERTOWN      SUNNY     16  -2  46 SW9       30.53S WCI   4
MONROE         SUNNY     14   0  52 W12       30.54S WCI   0
JANESVILLE     SUNNY     14  -4  44 W10       30.57R WCI   1
$$

WIZ051-052-058>065-066-070>072-272200-
SOUTHEAST WISCONSIN

CITY           SKY/WX    TMP DP  RH WIND       PRES   REMARKS
MILWAUKEE      SUNNY     17  -7  34 W10       30.55S WCI   5
WAUKESHA       SUNNY     12  -6  44 SW10      30.54S WCI  -1
MILWAUKEE/TIMM SUNNY     18  -8  32 W10G17    30.55S WCI   6
RACINE         SUNNY     14  -5  42 W12       30.58R WCI   0
BURLINGTON     SUNNY     13  -5  44 W8        30.57R WCI   2
KENOSHA        SUNNY     13  -2  51 W13       30.57R WCI  -2
FOND DU LAC    SUNNY     17  -2  43 W9        30.51S WCI   6
SHEBOYGAN      SUNNY     16  -1  47 W14       30.52R WCI   2
WEST BEND      SUNNY     18  -4  38 SW8       30.51S WCI   7
JUNEAU         SUNNY     15  -2  47 SW12G18   30.53S WCI   1
$$

LSZ147-162-272200-
LAKE SUPERIOR

STATION/POSITION TIME  TEMP    WIND        PRES    WAVE
                       AIR SEA DIR/SP/G            HT/PER
                 (UTC) (F)     (DEG/KT/KT) (MB)    (FT/S)
DEVILS ISLAND    2000   12     230/ 19/ 21 1031.5F
PORT WING        2000   16     270/  9/ 13 1030.8
SAXON HARBOR     2000   17     270/  5/ 10 1030.1
$$

LMZ867-665-643>646-272200-
LAKE MICHIGAN

STATION/POSITION TIME  TEMP    WIND        PRES    WAVE
                       AIR SEA DIR/SP/G            HT/PER
                 (UTC) (F)     (DEG/KT/KT) (MB)    (FT/S)
NORTHPORT PIER   2031   17     270/  4/ 14 1031.5S
SISTER BAY       1913          260/ 12/ 14   N/A
KEWAUNEE LAKESHO 2000   15     230/ 11/ 15 1031.6F
SHEBOYGAN LAKESH 2000   15     240/ 11/ 13 1035.3F
PORT WASHINGTON  2040   19     260/  7/ 11 1034.9R
MILWAUKEE LAKESH 2000   16     250/ 10/ 15   N/A
KENOSHA   LAKESH 2000   15     300/  7/ 12 1035.2S
$$

TC  - TEMPERATURE IN CELSIUS
VSB - VISIBILITY IN STATUTE MILES
WCI - WIND CHILL INDEX
HX  - HEAT INDEX



USA.gov is the U.S. government's official web portal to all federal, state and local government web resources and services.